TimeEDT,TemperatureF,Dew PointF,Humidity,Sea Level PressureIn,VisibilityMPH,Wind Direction,Wind SpeedMPH,Gust SpeedMPH,PrecipitationIn,Events,Conditions,WindDirDegrees,DateUTC
12:54 AM,59.0,50.0,72,30.21,10.0,Calm,Calm,-,N/A,,Clear,0,2013-05-27 04:54:00
1:54 AM,57.9,50.0,75,30.22,10.0,Calm,Calm,-,N/A,,Clear,0,2013-05-27 05:54:00
2:54 AM,57.9,48.9,72,30.21,10.0,Calm,Calm,-,N/A,,Clear,0,2013-05-27 06:54:00
3:54 AM,57.0,48.9,74,30.21,10.0,Calm,Calm,-,N/A,,Clear,0,2013-05-27 07:54:00
4:54 AM,55.0,48.9,80,30.22,10.0,Calm,Calm,-,N/A,,Clear,0,2013-05-27 08:54:00
5:54 AM,53.1,48.9,86,30.23,10.0,East,3.5,-,N/A,,Clear,90,2013-05-27 09:54:00
6:54 AM,57.0,50.0,77,30.25,10.0,Calm,Calm,-,N/A,,Partly Cloudy,0,2013-05-27 10:54:00
7:54 AM,61.0,52.0,72,30.26,10.0,Calm,Calm,-,N/A,,Partly Cloudy,0,2013-05-27 11:54:00
8:54 AM,64.0,48.0,56,30.27,10.0,Calm,Calm,-,N/A,,Partly Cloudy,0,2013-05-27 12:54:00
9:54 AM,69.1,50.0,51,30.26,10.0,West,3.5,-,N/A,,Partly Cloudy,270,2013-05-27 13:54:00
10:54 AM,71.1,48.9,45,30.25,10.0,SSW,9.2,-,N/A,,Partly Cloudy,210,2013-05-27 14:54:00
11:54 AM,73.9,50.0,43,30.25,10.0,SSW,6.9,-,N/A,,Scattered Clouds,200,2013-05-27 15:54:00
12:54 PM,75.9,51.1,42,30.23,10.0,WSW,9.2,-,N/A,,Partly Cloudy,240,2013-05-27 16:54:00
1:54 PM,75.9,51.1,42,30.22,10.0,SSW,12.7,17.3,N/A,,Scattered Clouds,210,2013-05-27 17:54:00
2:54 PM,78.1,52.0,40,30.20,10.0,SSW,9.2,-,N/A,,Scattered Clouds,200,2013-05-27 18:54:00
3:54 PM,79.0,52.0,39,30.17,10.0,South,12.7,19.6,N/A,,Partly Cloudy,180,2013-05-27 19:54:00
4:54 PM,79.0,53.1,40,30.16,10.0,South,10.4,-,N/A,,Partly Cloudy,180,2013-05-27 20:54:00
5:54 PM,78.1,54.0,43,30.16,10.0,SSE,11.5,-,N/A,,Scattered Clouds,160,2013-05-27 21:54:00
6:54 PM,75.9,54.0,46,30.16,10.0,South,9.2,-,N/A,,Scattered Clouds,190,2013-05-27 22:54:00
7:54 PM,73.9,53.1,48,30.15,10.0,South,9.2,-,N/A,,Partly Cloudy,170,2013-05-27 23:54:00
8:54 PM,72.0,53.1,51,30.14,10.0,South,8.1,-,N/A,,Clear,180,2013-05-28 00:54:00
9:54 PM,70.0,53.1,55,30.17,10.0,South,3.5,-,N/A,,Clear,180,2013-05-28 01:54:00
10:54 PM,69.1,54.0,58,30.18,10.0,South,4.6,-,N/A,,Clear,190,2013-05-28 02:54:00
11:54 PM,66.9,54.0,63,30.18,10.0,South,5.8,-,N/A,,Clear,180,2013-05-28 03:54:00